| time (UTC) | temp F | wind direction | speed MPH | gust MPH | rain 1hr in | rain 24hr in | rain mn in | humidity % | barometer mb |
| 20260506051118 | 63 | 0 | 0.0 | 0.0 | 0.00 | 0.00 | 0.00 | 75 | 1017.2 |
| 20260506050618 | 63 | 0 | 0.0 | 0.0 | 0.00 | 0.00 | 0.00 | 75 | 1017.2 |
| 20260506050119 | 63 | 0 | 0.0 | 0.0 | 0.00 | 0.00 | 0.00 | 75 | 1017.2 |
| 20260506045118 | 63 | 0 | 0.0 | 0.0 | 0.00 | 0.01 | 0.00 | 74 | 1017.2 |
| 20260506044618 | 63 | 0 | 0.0 | 0.0 | 0.00 | 0.01 | 0.00 | 74 | 1017.1 |
| 20260506044118 | 63 | 0 | 0.0 | 0.0 | 0.00 | 0.01 | 0.00 | 73 | 1017.0 |
| 20260506043619 | 63 | 106 | 0.0 | 1.0 | 0.00 | 0.01 | 0.00 | 73 | 1016.9 |
| 20260506043119 | 63 | 114 | 0.0 | 1.0 | 0.00 | 0.01 | 0.00 | 73 | 1016.9 |
| 20260506042618 | 63 | 121 | 0.0 | 1.0 | 0.00 | 0.01 | 0.00 | 73 | 1016.8 |
| 20260506042118 | 63 | 129 | 0.0 | 1.0 | 0.00 | 0.01 | 0.00 | 73 | 1016.8 |
| 20260506041618 | 63 | 0 | 0.0 | 0.0 | 0.00 | 0.02 | 0.00 | 73 | 1016.7 |
| 20260506041119 | 63 | 0 | 0.0 | 0.0 | 0.00 | 0.02 | 0.00 | 73 | 1016.7 |
| 20260506040618 | 63 | 0 | 0.0 | 0.0 | 0.00 | 0.02 | 0.00 | 73 | 1016.6 |
| 20260506040118 | 63 | 218 | 0.0 | 1.0 | 0.00 | 0.02 | 0.00 | 73 | 1016.5 |
| 20260506035618 | 64 | 218 | 0.0 | 1.0 | 0.00 | 0.02 | 0.00 | 72 | 1016.5 |
| 20260506035118 | 64 | 107 | 0.0 | 1.0 | 0.00 | 0.03 | 0.00 | 72 | 1016.4 |
| 20260506034618 | 64 | 168 | 0.0 | 1.0 | 0.00 | 0.03 | 0.00 | 72 | 1016.3 |
| 20260506034119 | 64 | 267 | 0.0 | 1.0 | 0.00 | 0.03 | 0.00 | 72 | 1016.2 |
| 20260506033618 | 64 | 0 | 0.0 | 0.0 | 0.00 | 0.03 | 0.00 | 72 | 1016.2 |
| 20260506033119 | 64 | 0 | 0.0 | 0.0 | 0.00 | 0.03 | 0.00 | 72 | 1016.1 |
| 20260506032618 | 64 | 124 | 0.0 | 1.0 | 0.00 | 0.03 | 0.00 | 72 | 1016.0 |
| 20260506032119 | 64 | 124 | 0.0 | 1.0 | 0.00 | 0.03 | 0.00 | 72 | 1016.0 |
| 20260506031618 | 64 | 0 | 0.0 | 0.0 | 0.00 | 0.04 | 0.00 | 72 | 1015.8 |
| 20260506031119 | 64 | 75 | 0.0 | 1.0 | 0.00 | 0.04 | 0.00 | 72 | 1015.7 |
| 20260506030618 | 64 | 61 | 0.0 | 1.0 | 0.00 | 0.04 | 0.00 | 72 | 1015.7 |
| 20260506030118 | 64 | 58 | 0.0 | 1.0 | 0.00 | 0.04 | 0.00 | 71 | 1015.6 |
| 20260506025618 | 64 | 164 | 0.0 | 1.0 | 0.00 | 0.04 | 0.00 | 72 | 1015.5 |
| 20260506025118 | 64 | 209 | 0.0 | 2.0 | 0.00 | 0.05 | 0.00 | 71 | 1015.4 |
| 20260506024618 | 64 | 138 | 0.0 | 2.0 | 0.00 | 0.05 | 0.00 | 71 | 1015.3 |
| 20260506024118 | 64 | 146 | 0.0 | 2.0 | 0.00 | 0.05 | 0.00 | 71 | 1015.3 |
| 20260506023619 | 64 | 149 | 0.0 | 2.0 | 0.00 | 0.06 | 0.00 | 70 | 1015.3 |
| 20260506023119 | 65 | 106 | 0.0 | 1.0 | 0.00 | 0.06 | 0.00 | 70 | 1015.2 |
| 20260506022618 | 65 | 134 | 0.0 | 1.0 | 0.00 | 0.06 | 0.00 | 70 | 1015.2 |
| 20260506022118 | 65 | 85 | 0.0 | 2.0 | 0.00 | 0.06 | 0.00 | 70 | 1015.1 |
| 20260506021618 | 65 | 92 | 0.0 | 2.0 | 0.00 | 0.06 | 0.00 | 70 | 1015.1 |
| 20260506021119 | 65 | 110 | 0.0 | 2.0 | 0.00 | 0.06 | 0.00 | 70 | 1015.0 |
| 20260506020618 | 65 | 114 | 0.0 | 3.0 | 0.00 | 0.06 | 0.00 | 70 | 1015.0 |
| 20260506020118 | 65 | 114 | 0.0 | 3.0 | 0.00 | 0.06 | 0.00 | 69 | 1014.9 |
| 20260506015619 | 65 | 118 | 0.0 | 3.0 | 0.00 | 0.06 | 0.00 | 68 | 1014.9 |
| 20260506015119 | 66 | 126 | 0.0 | 3.0 | 0.00 | 0.06 | 0.00 | 68 | 1014.9 |
| 20260506014618 | 66 | 125 | 0.0 | 3.0 | 0.00 | 0.06 | 0.00 | 68 | 1014.9 |
| 20260506014118 | 66 | 124 | 0.0 | 3.0 | 0.00 | 0.06 | 0.00 | 68 | 1014.9 |
| 20260506013618 | 66 | 95 | 0.0 | 2.0 | 0.00 | 0.06 | 0.00 | 68 | 1014.8 |
| 20260506013118 | 66 | 91 | 0.0 | 2.0 | 0.00 | 0.06 | 0.00 | 67 | 1014.7 |
| 20260506012618 | 66 | 96 | 0.0 | 1.0 | 0.00 | 0.06 | 0.00 | 66 | 1014.7 |
| 20260506012118 | 67 | 84 | 0.0 | 3.0 | 0.00 | 0.06 | 0.00 | 66 | 1014.6 |
| 20260506011618 | 67 | 81 | 0.0 | 3.0 | 0.00 | 0.06 | 0.00 | 66 | 1014.6 |
| 20260506011119 | 67 | 133 | 0.0 | 1.0 | 0.00 | 0.06 | 0.00 | 65 | 1014.5 |
| 20260506010618 | 67 | 80 | 0.0 | 1.0 | 0.00 | 0.06 | 0.00 | 64 | 1014.5 |
| 20260506010119 | 67 | 66 | 0.0 | 1.0 | 0.00 | 0.06 | 0.00 | 64 | 1014.5 |
| 20260506005618 | 67 | 119 | 0.0 | 1.0 | 0.00 | 0.06 | 0.00 | 64 | 1014.5 |
| 20260506005119 | 67 | 83 | 0.0 | 2.0 | 0.00 | 0.06 | 0.00 | 64 | 1014.5 |
| 20260506004618 | 67 | 75 | 0.0 | 3.0 | 0.00 | 0.06 | 0.00 | 63 | 1014.4 |
| 20260506004118 | 68 | 90 | 0.0 | 3.0 | 0.00 | 0.06 | 0.00 | 62 | 1014.4 |
| 20260506003619 | 68 | 145 | 0.0 | 3.0 | 0.00 | 0.06 | 0.00 | 62 | 1014.3 |
| 20260506003118 | 68 | 92 | 0.0 | 1.0 | 0.00 | 0.06 | 0.00 | 62 | 1014.3 |
| 20260506002618 | 68 | 94 | 0.0 | 1.0 | 0.00 | 0.06 | 0.00 | 62 | 1014.4 |
| 20260506002118 | 68 | 0 | 0.0 | 0.0 | 0.00 | 0.06 | 0.00 | 63 | 1014.3 |
| 20260506001618 | 68 | 81 | 0.0 | 1.0 | 0.00 | 0.06 | 0.00 | 63 | 1014.3 |
| 20260506001118 | 68 | 54 | 0.0 | 2.0 | 0.00 | 0.06 | 0.00 | 62 | 1014.3 |
| 20260506000618 | 68 | 60 | 0.0 | 2.0 | 0.00 | 0.06 | 0.00 | 61 | 1014.2 |
| 20260506000118 | 68 | 90 | 0.0 | 1.0 | 0.00 | 0.06 | 0.00 | 62 | 1014.2 |
| 20260505235618 | 68 | 115 | 0.0 | 1.0 | 0.00 | 0.06 | 0.00 | 61 | 1014.1 |
| 20260505235119 | 68 | 98 | 0.0 | 3.0 | 0.00 | 0.06 | 0.00 | 61 | 1014.1 |
| 20260505234618 | 68 | 83 | 0.0 | 3.0 | 0.00 | 0.06 | 0.00 | 61 | 1014.1 |
| 20260505234118 | 68 | 73 | 0.0 | 3.0 | 0.00 | 0.06 | 0.00 | 60 | 1014.1 |
| 20260505233618 | 68 | 46 | 0.0 | 2.0 | 0.00 | 0.06 | 0.00 | 61 | 1014.1 |
| 20260505233118 | 69 | 40 | 0.0 | 2.0 | 0.00 | 0.06 | 0.00 | 61 | 1014.2 |
| 20260505232619 | 69 | 124 | 0.0 | 1.0 | 0.00 | 0.06 | 0.00 | 60 | 1014.2 |
| 20260505232118 | 69 | 117 | 0.0 | 1.0 | 0.00 | 0.06 | 0.00 | 61 | 1014.2 |
| 20260505231618 | 69 | 86 | 0.0 | 3.0 | 0.00 | 0.06 | 0.00 | 61 | 1014.2 |
| 20260505231118 | 69 | 85 | 0.0 | 3.0 | 0.00 | 0.06 | 0.00 | 61 | 1014.3 |
| 20260505230618 | 69 | 91 | 0.0 | 1.0 | 0.00 | 0.06 | 0.00 | 61 | 1014.3 |
| 20260505230118 | 69 | 94 | 0.0 | 1.0 | 0.00 | 0.06 | 0.00 | 59 | 1014.3 |
| 20260505225619 | 69 | 95 | 0.0 | 1.0 | 0.00 | 0.06 | 0.00 | 59 | 1014.4 |
| 20260505225119 | 69 | 76 | 0.0 | 1.0 | 0.00 | 0.06 | 0.00 | 60 | 1014.4 |
| 20260505224618 | 69 | 290 | 0.0 | 1.0 | 0.00 | 0.06 | 0.00 | 60 | 1014.5 |
| 20260505224118 | 69 | 92 | 0.0 | 2.0 | 0.00 | 0.06 | 0.00 | 60 | 1014.5 |
| 20260505223618 | 69 | 76 | 0.0 | 2.0 | 0.00 | 0.06 | 0.00 | 59 | 1014.7 |
| 20260505223119 | 68 | 66 | 0.0 | 1.0 | 0.00 | 0.06 | 0.00 | 62 | 1014.6 |
| 20260505222618 | 68 | 351 | 0.0 | 3.0 | 0.00 | 0.06 | 0.00 | 63 | 1014.7 |
| 20260505222118 | 67 | 345 | 0.0 | 3.0 | 0.00 | 0.06 | 0.00 | 63 | 1014.7 |
| 20260505221618 | 67 | 355 | 0.0 | 3.0 | 0.00 | 0.06 | 0.00 | 63 | 1014.8 |
| 20260505221118 | 67 | 14 | 0.0 | 1.0 | 0.00 | 0.06 | 0.00 | 63 | 1014.9 |
| 20260505220618 | 67 | 318 | 0.0 | 1.0 | 0.00 | 0.06 | 0.00 | 64 | 1014.9 |
| 20260505220119 | 66 | 319 | 0.0 | 1.0 | 0.00 | 0.06 | 0.00 | 66 | 1014.9 |
| 20260505215619 | 67 | 319 | 0.0 | 1.0 | 0.00 | 0.06 | 0.00 | 63 | 1014.9 |
| 20260505215119 | 67 | 141 | 0.0 | 1.0 | 0.00 | 0.06 | 0.00 | 65 | 1015.0 |
| 20260505214618 | 67 | 0 | 0.0 | 0.0 | 0.00 | 0.06 | 0.00 | 64 | 1015.1 |
| 20260505214118 | 67 | 0 | 0.0 | 0.0 | 0.00 | 0.06 | 0.00 | 64 | 1015.1 |
| 20260505213619 | 67 | 0 | 0.0 | 0.0 | 0.00 | 0.06 | 0.00 | 63 | 1015.1 |
| 20260505213119 | 67 | 0 | 0.0 | 0.0 | 0.00 | 0.06 | 0.00 | 63 | 1015.1 |
| 20260505212619 | 68 | 0 | 0.0 | 0.0 | 0.00 | 0.06 | 0.00 | 62 | 1015.2 |
| 20260505212118 | 68 | 0 | 0.0 | 0.0 | 0.00 | 0.06 | 0.00 | 64 | 1015.1 |
| 20260505211618 | 68 | 0 | 0.0 | 0.0 | 0.00 | 0.06 | 0.00 | 64 | 1015.1 |
| 20260505211118 | 68 | 87 | 0.0 | 1.0 | 0.00 | 0.06 | 0.00 | 62 | 1015.1 |
| 20260505210618 | 68 | 78 | 0.0 | 1.0 | 0.00 | 0.06 | 0.00 | 63 | 1015.2 |
| 20260505210118 | 69 | 67 | 0.0 | 1.0 | 0.00 | 0.06 | 0.00 | 63 | 1015.2 |
| 20260505205618 | 69 | 49 | 0.0 | 1.0 | 0.00 | 0.06 | 0.00 | 62 | 1015.2 |
| 20260505205118 | 68 | 43 | 0.0 | 1.0 | 0.00 | 0.06 | 0.00 | 62 | 1015.2 |
| 20260505204618 | 68 | 44 | 0.0 | 2.0 | 0.00 | 0.06 | 0.00 | 64 | 1015.2 |
| 20260505204119 | 68 | 8 | 0.0 | 2.0 | 0.00 | 0.06 | 0.00 | 62 | 1015.3 |
| 20260505203619 | 68 | 227 | 0.0 | 2.0 | 0.00 | 0.06 | 0.00 | 63 | 1015.3 |
| 20260505203118 | 68 | 141 | 0.0 | 1.0 | 0.00 | 0.06 | 0.00 | 63 | 1015.3 |
| 20260505202618 | 68 | 31 | 0.0 | 3.0 | 0.00 | 0.06 | 0.00 | 63 | 1015.3 |
| 20260505202118 | 68 | 39 | 0.0 | 3.0 | 0.00 | 0.06 | 0.00 | 63 | 1015.3 |
| 20260505201618 | 68 | 89 | 0.0 | 1.0 | 0.00 | 0.06 | 0.00 | 64 | 1015.4 |
| 20260505201119 | 68 | 66 | 0.0 | 1.0 | 0.00 | 0.06 | 0.00 | 62 | 1015.5 |
| 20260505200618 | 68 | 0 | 0.0 | 0.0 | 0.00 | 0.06 | 0.00 | 63 | 1015.6 |
| 20260505200119 | 68 | 0 | 0.0 | 0.0 | 0.00 | 0.06 | 0.00 | 64 | 1015.5 |
| 20260505195619 | 67 | 0 | 0.0 | 0.0 | 0.00 | 0.06 | 0.00 | 66 | 1015.6 |
| 20260505195118 | 67 | 0 | 0.0 | 0.0 | 0.00 | 0.06 | 0.00 | 65 | 1015.6 |
| 20260505194619 | 67 | 0 | 0.0 | 0.0 | 0.00 | 0.06 | 0.00 | 65 | 1015.7 |
| 20260505194119 | 67 | 0 | 0.0 | 0.0 | 0.00 | 0.06 | 0.00 | 64 | 1015.7 |
| 20260505193619 | 68 | 0 | 0.0 | 0.0 | 0.00 | 0.06 | 0.00 | 65 | 1015.8 |
| 20260505193118 | 67 | 0 | 0.0 | 0.0 | 0.00 | 0.06 | 0.00 | 64 | 1015.8 |
| 20260505192619 | 67 | 324 | 0.0 | 1.0 | 0.00 | 0.06 | 0.00 | 65 | 1015.8 |
| 20260505192118 | 67 | 151 | 0.0 | 1.0 | 0.00 | 0.06 | 0.00 | 66 | 1015.8 |
| 20260505191619 | 67 | 114 | 0.0 | 1.0 | 0.00 | 0.06 | 0.00 | 64 | 1015.9 |
| 20260505191119 | 66 | 87 | 0.0 | 2.0 | 0.00 | 0.06 | 0.00 | 66 | 1015.9 |
| 20260505190619 | 65 | 89 | 0.0 | 2.0 | 0.00 | 0.06 | 0.00 | 67 | 1015.9 |
| 20260505190119 | 64 | 175 | 0.0 | 2.0 | 0.00 | 0.06 | 0.00 | 69 | 1016.0 |
| 20260505185619 | 63 | 181 | 0.0 | 2.0 | 0.00 | 0.06 | 0.00 | 71 | 1016.0 |
| 20260505185119 | 63 | 217 | 0.0 | 1.0 | 0.00 | 0.06 | 0.00 | 71 | 1016.0 |
| 20260505184618 | 63 | 165 | 0.0 | 1.0 | 0.00 | 0.06 | 0.00 | 73 | 1016.0 |
| 20260505184118 | 63 | 136 | 0.0 | 1.0 | 0.00 | 0.06 | 0.00 | 73 | 1016.0 |
| 20260505183618 | 63 | 201 | 0.0 | 1.0 | 0.00 | 0.06 | 0.00 | 73 | 1016.0 |
| 20260505183119 | 62 | 223 | 0.0 | 1.0 | 0.00 | 0.06 | 0.00 | 73 | 1016.0 |
| 20260505182618 | 62 | 82 | 0.0 | 1.0 | 0.00 | 0.06 | 0.00 | 72 | 1016.0 |
| 20260505182118 | 62 | 82 | 0.0 | 1.0 | 0.00 | 0.06 | 0.00 | 72 | 1016.1 |
| 20260505181618 | 63 | 70 | 0.0 | 1.0 | 0.00 | 0.06 | 0.00 | 72 | 1016.0 |
| 20260505181118 | 63 | 0 | 0.0 | 0.0 | 0.00 | 0.06 | 0.00 | 74 | 1016.0 |
| 20260505180618 | 62 | 0 | 0.0 | 0.0 | 0.00 | 0.06 | 0.00 | 75 | 1016.1 |
| 20260505180118 | 62 | 0 | 0.0 | 0.0 | 0.00 | 0.06 | 0.00 | 74 | 1016.0 |
| 20260505175618 | 62 | 0 | 0.0 | 0.0 | 0.00 | 0.06 | 0.00 | 75 | 1016.1 |
| 20260505175118 | 61 | 231 | 0.0 | 2.0 | 0.00 | 0.06 | 0.00 | 76 | 1016.0 |
| 20260505174618 | 61 | 234 | 0.0 | 2.0 | 0.00 | 0.06 | 0.00 | 76 | 1016.0 |
| 20260505174119 | 61 | 40 | 0.0 | 1.0 | 0.00 | 0.06 | 0.00 | 77 | 1016.0 |
| 20260505173618 | 61 | 119 | 0.0 | 1.0 | 0.00 | 0.06 | 0.00 | 77 | 1016.0 |
| 20260505173119 | 60 | 103 | 0.0 | 1.0 | 0.00 | 0.06 | 0.00 | 78 | 1016.0 |
| 20260505172618 | 60 | 107 | 0.0 | 1.0 | 0.00 | 0.06 | 0.00 | 78 | 1016.0 |
| 20260505172118 | 59 | 145 | 0.0 | 1.0 | 0.00 | 0.06 | 0.00 | 79 | 1016.0 |
| 20260505171618 | 59 | 145 | 0.0 | 1.0 | 0.00 | 0.06 | 0.00 | 79 | 1016.0 |
| 20260505171118 | 60 | 0 | 0.0 | 0.0 | 0.00 | 0.06 | 0.00 | 79 | 1016.0 |
| 20260505170619 | 59 | 0 | 0.0 | 0.0 | 0.00 | 0.06 | 0.00 | 80 | 1016.0 |
| 20260505170118 | 59 | 0 | 0.0 | 0.0 | 0.00 | 0.06 | 0.00 | 79 | 1016.0 |
| 20260505165618 | 59 | 0 | 0.0 | 0.0 | 0.00 | 0.06 | 0.00 | 80 | 1016.0 |
| 20260505165119 | 59 | 118 | 0.0 | 1.0 | 0.00 | 0.06 | 0.00 | 80 | 1016.0 |
| 20260505164618 | 59 | 118 | 0.0 | 1.0 | 0.00 | 0.06 | 0.00 | 80 | 1016.0 |
| 20260505164119 | 59 | 138 | 0.0 | 1.0 | 0.00 | 0.06 | 0.00 | 80 | 1016.0 |
| 20260505163618 | 58 | 134 | 0.0 | 1.0 | 0.00 | 0.06 | 0.00 | 80 | 1016.0 |
| 20260505163119 | 59 | 113 | 0.0 | 1.0 | 0.00 | 0.06 | 0.00 | 80 | 1015.9 |
| 20260505162618 | 58 | 127 | 0.0 | 1.0 | 0.00 | 0.06 | 0.00 | 81 | 1015.8 |
| 20260505162118 | 58 | 127 | 0.0 | 1.0 | 0.00 | 0.06 | 0.00 | 83 | 1015.8 |
| 20260505161618 | 58 | 0 | 0.0 | 0.0 | 0.00 | 0.06 | 0.00 | 83 | 1015.7 |
| 20260505161118 | 58 | 0 | 0.0 | 0.0 | 0.00 | 0.06 | 0.00 | 83 | 1015.8 |
| 20260505160618 | 58 | 0 | 0.0 | 0.0 | 0.00 | 0.06 | 0.00 | 83 | 1015.7 |
| 20260505160118 | 58 | 0 | 0.0 | 0.0 | 0.00 | 0.06 | 0.00 | 84 | 1015.7 |
| 20260505153118 | 56 | 0 | 0.0 | 0.0 | 0.00 | 0.07 | 0.00 | 88 | 1015.7 |
| 20260505152618 | 55 | 0 | 0.0 | 0.0 | 0.00 | 0.07 | 0.00 | 89 | 1015.6 |
| 20260505152118 | 55 | 0 | 0.0 | 0.0 | 0.00 | 0.07 | 0.00 | 88 | 1015.6 |
| 20260505151618 | 55 | 0 | 0.0 | 0.0 | 0.00 | 0.07 | 0.00 | 90 | 1015.6 |
| 20260505151119 | 55 | 0 | 0.0 | 0.0 | 0.00 | 0.08 | 0.00 | 89 | 1015.5 |
| 20260505150619 | 55 | 0 | 0.0 | 0.0 | 0.00 | 0.08 | 0.00 | 89 | 1015.5 |
| 20260505150118 | 55 | 0 | 0.0 | 0.0 | 0.00 | 0.08 | 0.00 | 89 | 1015.5 |
| 20260505140618 | 54 | 0 | 0.0 | 0.0 | 0.00 | 0.12 | 0.00 | 91 | 1015.2 |
| 20260505140118 | 54 | 0 | 0.0 | 0.0 | 0.00 | 0.12 | 0.00 | 91 | 1015.0 |
| 20260505130118 | 54 | 0 | 0.0 | 0.0 | 0.00 | 0.12 | 0.00 | 91 | 1014.7 |
| 20260505124618 | 54 | 0 | 0.0 | 0.0 | 0.00 | 0.12 | 0.00 | 91 | 1014.8 |
| 20260505124118 | 54 | 0 | 0.0 | 0.0 | 0.00 | 0.12 | 0.00 | 91 | 1014.8 |
| 20260505123618 | 54 | 0 | 0.0 | 0.0 | 0.00 | 0.12 | 0.00 | 91 | 1014.8 |
| 20260505123118 | 54 | 0 | 0.0 | 0.0 | 0.00 | 0.12 | 0.00 | 91 | 1014.8 |
| 20260505122618 | 54 | 0 | 0.0 | 0.0 | 0.00 | 0.12 | 0.00 | 91 | 1014.8 |
| 20260505122118 | 54 | 0 | 0.0 | 0.0 | 0.00 | 0.12 | 0.00 | 91 | 1014.8 |
| 20260505121618 | 54 | 0 | 0.0 | 0.0 | 0.00 | 0.12 | 0.00 | 91 | 1014.8 |
| 20260505121119 | 54 | 0 | 0.0 | 0.0 | 0.00 | 0.12 | 0.00 | 91 | 1014.8 |
| 20260505120618 | 54 | 0 | 0.0 | 0.0 | 0.00 | 0.12 | 0.00 | 91 | 1014.9 |
| 20260505120118 | 54 | 211 | 0.0 | 1.0 | 0.00 | 0.12 | 0.00 | 91 | 1014.9 |
| 20260505115618 | 54 | 211 | 0.0 | 1.0 | 0.00 | 0.12 | 0.00 | 91 | 1014.8 |
| 20260505115118 | 54 | 164 | 0.0 | 1.0 | 0.00 | 0.12 | 0.00 | 91 | 1014.8 |
| 20260505114618 | 54 | 145 | 0.0 | 1.0 | 0.00 | 0.12 | 0.00 | 91 | 1014.8 |
| 20260505114118 | 54 | 0 | 0.0 | 0.0 | 0.00 | 0.12 | 0.00 | 91 | 1014.8 |
| 20260505113618 | 54 | 0 | 0.0 | 0.0 | 0.00 | 0.12 | 0.00 | 91 | 1014.8 |
| 20260505113119 | 54 | 0 | 0.0 | 0.0 | 0.00 | 0.12 | 0.00 | 91 | 1014.8 |
| 20260505112619 | 54 | 243 | 0.0 | 1.0 | 0.00 | 0.12 | 0.00 | 91 | 1014.8 |
| 20260505112119 | 54 | 243 | 0.0 | 1.0 | 0.00 | 0.12 | 0.00 | 91 | 1014.8 |
| 20260505111619 | 54 | 0 | 0.0 | 0.0 | 0.00 | 0.12 | 0.00 | 91 | 1014.8 |
| 20260505111118 | 54 | 0 | 0.0 | 0.0 | 0.00 | 0.12 | 0.00 | 91 | 1014.8 |
| 20260505110618 | 54 | 0 | 0.0 | 0.0 | 0.00 | 0.12 | 0.00 | 91 | 1014.7 |
| 20260505110118 | 54 | 0 | 0.0 | 0.0 | 0.00 | 0.12 | 0.00 | 91 | 1014.8 |
| 20260505102118 | 54 | 122 | 0.0 | 1.0 | 0.00 | 0.12 | 0.00 | 91 | 1014.7 |
| 20260505101618 | 54 | 122 | 0.0 | 1.0 | 0.00 | 0.12 | 0.00 | 91 | 1014.7 |
| 20260505101118 | 54 | 232 | 0.0 | 1.0 | 0.00 | 0.12 | 0.00 | 91 | 1014.7 |
| 20260505100618 | 54 | 206 | 0.0 | 1.0 | 0.00 | 0.12 | 0.00 | 91 | 1014.6 |
| 20260505100119 | 54 | 118 | 0.0 | 1.0 | 0.00 | 0.12 | 0.00 | 91 | 1014.7 |
| 20260505095619 | 54 | 95 | 0.0 | 1.0 | 0.00 | 0.12 | 0.00 | 91 | 1014.7 |
| 20260505095119 | 54 | 105 | 0.0 | 1.0 | 0.00 | 0.12 | 0.00 | 91 | 1014.7 |
| 20260505094618 | 54 | 0 | 0.0 | 0.0 | 0.00 | 0.12 | 0.00 | 91 | 1014.7 |
| 20260505094118 | 54 | 137 | 0.0 | 1.0 | 0.00 | 0.12 | 0.00 | 91 | 1014.6 |
| 20260505093618 | 54 | 137 | 0.0 | 1.0 | 0.00 | 0.12 | 0.00 | 91 | 1014.7 |
| 20260505093118 | 54 | 119 | 0.0 | 1.0 | 0.00 | 0.12 | 0.00 | 91 | 1014.7 |
| 20260505092618 | 54 | 119 | 0.0 | 1.0 | 0.00 | 0.12 | 0.00 | 91 | 1014.8 |
| 20260505092118 | 54 | 328 | 0.0 | 1.0 | 0.00 | 0.12 | 0.00 | 91 | 1014.8 |
| 20260505091618 | 54 | 328 | 0.0 | 1.0 | 0.00 | 0.12 | 0.00 | 91 | 1014.8 |
| 20260505091118 | 54 | 75 | 0.0 | 1.0 | 0.00 | 0.12 | 0.00 | 91 | 1014.7 |
| 20260505090618 | 54 | 75 | 0.0 | 1.0 | 0.00 | 0.12 | 0.00 | 91 | 1014.6 |
| 20260505090119 | 54 | 37 | 0.0 | 1.0 | 0.00 | 0.12 | 0.00 | 92 | 1014.6 |
| 20260505085619 | 54 | 37 | 0.0 | 1.0 | 0.00 | 0.12 | 0.00 | 92 | 1014.7 |
| 20260505085119 | 54 | 0 | 0.0 | 0.0 | 0.00 | 0.12 | 0.00 | 92 | 1014.6 |
| 20260505084618 | 54 | 0 | 0.0 | 0.0 | 0.00 | 0.12 | 0.00 | 92 | 1014.6 |
| 20260505084119 | 54 | 0 | 0.0 | 0.0 | 0.00 | 0.12 | 0.00 | 93 | 1014.7 |
| 20260505083618 | 54 | 0 | 0.0 | 0.0 | 0.00 | 0.12 | 0.00 | 93 | 1014.6 |
| 20260505083118 | 54 | 0 | 0.0 | 0.0 | 0.00 | 0.12 | 0.00 | 93 | 1014.6 |
| 20260505082618 | 54 | 0 | 0.0 | 0.0 | 0.00 | 0.12 | 0.00 | 93 | 1014.6 |
| 20260505082118 | 54 | 0 | 0.0 | 0.0 | 0.00 | 0.12 | 0.00 | 93 | 1014.6 |
| 20260505081618 | 54 | 0 | 0.0 | 0.0 | 0.00 | 0.12 | 0.00 | 93 | 1014.6 |
| 20260505081118 | 54 | 0 | 0.0 | 0.0 | 0.00 | 0.12 | 0.00 | 93 | 1014.6 |
| 20260505080618 | 54 | 0 | 0.0 | 0.0 | 0.00 | 0.12 | 0.00 | 93 | 1014.6 |
| 20260505080118 | 54 | 0 | 0.0 | 0.0 | 0.00 | 0.12 | 0.00 | 93 | 1014.5 |
| 20260505075618 | 54 | 0 | 0.0 | 0.0 | 0.00 | 0.12 | 0.00 | 92 | 1014.4 |
| 20260505075118 | 54 | 0 | 0.0 | 0.0 | 0.00 | 0.12 | 0.00 | 93 | 1014.2 |
| 20260505074618 | 54 | 0 | 0.0 | 0.0 | 0.00 | 0.12 | 0.00 | 93 | 1014.2 |
| 20260505074119 | 54 | 0 | 0.0 | 0.0 | 0.00 | 0.12 | 0.00 | 92 | 1014.3 |
| 20260505073618 | 54 | 0 | 0.0 | 0.0 | 0.00 | 0.12 | 0.00 | 92 | 1014.4 |
| 20260505073118 | 54 | 0 | 0.0 | 0.0 | 0.00 | 0.12 | 0.00 | 92 | 1014.6 |
| 20260505072618 | 54 | 0 | 0.0 | 0.0 | 0.00 | 0.12 | 0.00 | 92 | 1014.8 |
| 20260505072118 | 54 | 0 | 0.0 | 0.0 | 0.00 | 0.12 | 0.00 | 92 | 1014.8 |
| 20260505071619 | 54 | 0 | 0.0 | 0.0 | 0.00 | 0.12 | 0.00 | 92 | 1014.8 |
| 20260505071118 | 54 | 0 | 0.0 | 0.0 | 0.00 | 0.12 | 0.00 | 92 | 1014.9 |
| 20260505070618 | 54 | 0 | 0.0 | 0.0 | 0.00 | 0.12 | 0.00 | 92 | 1014.8 |
| 20260505070118 | 54 | 0 | 0.0 | 0.0 | 0.00 | 0.12 | 0.00 | 92 | 1014.7 |
| 20260505065618 | 54 | 0 | 0.0 | 0.0 | 0.00 | 0.12 | 0.12 | 92 | 1014.7 |
| 20260505065118 | 54 | 100 | 0.0 | 1.0 | 0.00 | 0.12 | 0.12 | 92 | 1014.7 |
| 20260505064618 | 54 | 100 | 0.0 | 1.0 | 0.00 | 0.12 | 0.12 | 92 | 1014.9 |
| 20260505064118 | 54 | 0 | 0.0 | 0.0 | 0.00 | 0.12 | 0.12 | 92 | 1014.8 |
| 20260505063618 | 54 | 0 | 0.0 | 0.0 | 0.00 | 0.12 | 0.12 | 92 | 1014.7 |
| 20260505063118 | 54 | 0 | 0.0 | 0.0 | 0.00 | 0.12 | 0.12 | 92 | 1014.7 |
| 20260505062618 | 54 | 100 | 0.0 | 1.0 | 0.00 | 0.12 | 0.12 | 92 | 1014.6 |
| 20260505062118 | 54 | 100 | 0.0 | 1.0 | 0.00 | 0.12 | 0.12 | 92 | 1014.8 |
| 20260505061618 | 54 | 0 | 0.0 | 0.0 | 0.00 | 0.12 | 0.12 | 92 | 1014.7 |
| 20260505061119 | 54 | 140 | 0.0 | 1.0 | 0.00 | 0.12 | 0.12 | 92 | 1014.8 |
| 20260505060618 | 54 | 140 | 0.0 | 1.0 | 0.00 | 0.12 | 0.12 | 92 | 1014.7 |
| 20260505060119 | 54 | 141 | 0.0 | 1.0 | 0.00 | 0.12 | 0.12 | 92 | 1014.9 |
| 20260505055618 | 54 | 140 | 0.0 | 1.0 | 0.00 | 0.12 | 0.12 | 92 | 1014.8 |
| 20260505055118 | 54 | 140 | 0.0 | 1.0 | 0.01 | 0.12 | 0.12 | 92 | 1014.7 |